I2HLY-4 Weather Reports


Display with metric or nautical units.
time (UTC)temp
F
wind
direction
speed
MPH
gust
MPH
rain 1hr
in
rain 24hr
in
rain mn
in
humidity
%
barometer
mb
20260506230211 44 70 2.0 3.0 0.00 3.43 0.00 96 1012.4
20260506224717 44 345 0.0 5.0 0.00 3.43 0.00 96 1012.3
20260506223218 44 37 4.0 6.0 0.00 3.43 0.00 96 1012.2
20260506221720 44 62 1.0 4.0 0.04 3.43 0.00 96 1012.4
20260506220225 44 53 5.0 11.0 0.04 3.62 0.87 95 1012.3
20260506214724 44 42 3.0 6.0 0.04 3.62 0.87 95 1012.2
20260506213209 44 74 3.0 5.0 0.04 3.62 0.87 95 1012.5
20260506211710 44 84 2.0 6.0 0.00 3.58 0.86 95 1012.5
20260506210211 44 50 4.0 10.0 0.00 3.90 0.86 95 1012.4
20260506204717 44 42 4.0 9.0 0.00 3.90 0.86 95 1012.4
20260506203218 44 58 3.0 8.0 0.00 3.90 0.86 95 1012.5
20260506201722 44 57 4.0 7.0 0.00 3.90 0.86 95 1012.5
20260506200223 44 39 2.0 7.0 0.00 3.94 0.86 95 1012.7
20260506194724 44 288 4.0 11.0 0.00 3.94 0.86 95 1012.5
20260506193210 44 44 4.0 10.0 0.00 3.94 0.86 95 1011.9
20260506191710 44 65 5.0 7.0 0.00 3.94 0.86 94 1011.7
20260506190211 45 89 3.0 8.0 0.04 4.02 0.86 94 1011.7
20260506184713 44 49 7.0 11.0 0.04 4.02 0.86 94 1011.1
20260506183215 44 42 6.0 12.0 0.12 4.02 0.86 93 1011.0
20260506181720 44 55 9.0 13.0 0.24 4.02 0.86 94 1011.0
20260506180219 44 342 2.0 5.0 0.39 3.98 0.85 95 1010.9
20260506174716 44 80 5.0 9.0 0.51 3.98 0.85 95 1010.6
20260506173221 44 28 4.0 9.0 0.87 3.90 0.83 95 1010.5
20260506171721 44 20 4.0 9.0 1.14 3.78 0.80 93 1011.0
20260506170222 44 14 2.0 10.0 1.42 3.58 0.75 92 1010.8
20260506164726 44 63 1.0 19.0 1.34 3.46 0.72 90 1010.3
20260506163228 46 142 1.0 13.0 0.91 3.03 0.61 90 1010.6
20260506161712 49 160 5.0 15.0 0.51 2.60 0.50 91 1009.4
20260506160213 50 15 5.0 11.0 0.12 2.17 0.38 91 1008.8
20260506154712 50 81 4.0 12.0 0.12 2.17 0.38 90 1008.7
20260506153216 50 136 4.0 8.0 0.12 2.17 0.38 89 1008.8
20260506151717 52 202 2.0 8.0 0.08 2.13 0.37 82 1009.0
20260506150222 54 18 4.0 8.0 0.00 2.17 0.35 83 1008.9
20260506144719 54 350 1.0 7.0 0.00 2.17 0.35 81 1009.2
20260506143219 54 340 2.0 7.0 0.00 2.17 0.35 83 1009.0
20260506141722 54 348 1.0 6.0 0.00 2.17 0.35 82 1009.4
20260506140222 55 78 3.0 6.0 0.00 2.17 0.35 84 1009.8
20260506134724 53 346 1.0 5.0 0.00 2.17 0.35 84 1010.1
20260506133228 54 71 4.0 7.0 0.00 2.17 0.35 82 1010.3
20260506131729 55 207 1.0 8.0 0.00 2.17 0.35 85 1010.3
20260506130233 53 279 5.0 12.0 0.04 2.17 0.35 88 1010.3
20260506124713 52 183 1.0 5.0 0.04 2.17 0.35 88 1010.2
20260506123213 51 331 0.0 6.0 0.04 2.17 0.35 90 1010.1
20260506121718 52 346 0.0 8.0 0.04 2.17 0.35 86 1010.1
20260506120225 53 302 0.0 4.0 0.00 2.20 0.34 88 1010.0
20260506114724 52 286 2.0 3.0 0.00 2.20 0.34 88 1010.0
20260506113229 51 74 1.0 3.0 0.00 2.20 0.34 89 1010.1
20260506111710 51 355 3.0 6.0 0.00 2.20 0.34 88 1010.3
20260506110212 50 74 3.0 8.0 0.00 2.24 0.34 91 1010.7
20260506104712 49 342 2.0 7.0 0.00 2.24 0.34 92 1010.8
20260506103211 48 44 3.0 6.0 0.04 2.24 0.34 93 1010.6
20260506101715 48 54 4.0 9.0 0.12 2.24 0.34 91 1010.9
20260506100214 47 68 4.0 11.0 0.20 2.36 0.34 92 1010.9
20260506094720 47 83 5.0 12.0 0.31 2.36 0.34 93 1010.7
20260506093220 46 214 2.0 5.0 0.28 2.32 0.33 94 1010.8
20260506091722 47 64 1.0 8.0 0.20 2.24 0.31 92 1010.7
20260506090226 47 76 5.0 10.0 0.12 2.68 0.29 88 1010.1
20260506084727 48 91 4.0 14.0 0.00 2.56 0.26 85 1010.1
20260506083211 49 118 3.0 12.0 0.00 2.56 0.26 86 1010.0
20260506081712 49 136 3.0 9.0 0.00 2.56 0.26 85 1010.0
20260506080212 49 69 6.0 11.0 0.00 2.80 0.26 84 1009.8
20260506073213 49 272 2.0 9.0 0.00 2.80 0.26 86 1010.1
20260506071714 48 92 4.0 14.0 0.00 2.80 0.26 88 1010.2
20260506070215 47 36 2.0 8.0 0.00 2.83 0.26 89 1010.0
20260506061717 46 5 4.0 11.0 0.24 2.83 0.26 95 1010.7
20260506060215 46 47 9.0 15.0 0.39 2.83 0.26 97 1010.5
20260506050221 46 94 1.0 3.0 0.12 2.44 0.16 97 1011.1
20260506044722 46 88 1.0 3.0 0.08 2.40 0.15 97 1011.3
20260506043227 46 118 1.0 3.0 0.04 2.36 0.14 97 1011.2
20260506041726 46 77 2.0 4.0 0.04 2.36 0.14 97 1011.1
20260506040210 47 69 2.0 4.0 0.00 2.32 0.13 98 1011.0
20260506034712 47 76 2.0 5.0 0.00 2.32 0.13 98 1011.1
20260506033211 47 51 2.0 5.0 0.00 2.32 0.13 98 1011.2
20260506031715 47 84 1.0 3.0 0.00 2.32 0.13 98 1011.4
20260506030218 47 66 2.0 4.0 0.00 2.32 0.13 98 1011.4
20260506024715 47 66 0.0 0.0 0.00 2.32 0.13 98 1011.9
20260506023220 47 55 0.0 3.0 0.00 2.32 0.13 98 1012.1
20260506021722 47 151 0.0 2.0 0.12 2.32 0.13 98 1012.3
20260506020227 47 24 1.0 2.0 0.16 2.32 0.13 98 1012.5
20260506014728 47 24 0.0 0.0 0.20 2.32 0.13 98 1012.4
20260506013230 47 342 0.0 2.0 0.28 2.32 0.13 98 1012.3
20260506011714 47 317 0.0 0.0 0.20 2.20 0.10 98 1012.5
20260506010214 47 317 0.0 0.0 0.20 2.17 0.09 98 1012.6
20260506004723 47 317 0.0 0.0 0.16 2.13 0.08 98 1012.7
20260506003214 47 209 0.0 0.0 0.12 2.05 0.06 98 1012.8
20260506001713 47 186 0.0 0.0 0.20 2.01 0.05 98 1012.9
20260505234723 47 135 0.0 0.0 0.16 1.97 0.04 98 1013.1
20260505233223 47 128 0.0 0.0 0.12 1.93 0.03 98 1013.1
20260505231724 47 106 0.0 0.0 0.00 1.81 0.00 98 1013.2